{"data":{"norad_id":64243,"intl_designator":"2025-119L","name":"STARLINK-11694 [DTC]","alt_names":[],"object_type":"PAYLOAD","status":"ACTIVE","operator":null,"country":"US","launch_date":"2025-06-03","launch_site_code":"AFETR","launch_vehicle":null,"mission":null,"orbit_class":"UNKNOWN","rcs_meters":null,"size_class":null,"mass_kg":null,"dimensions":null,"purposes":["comms"],"wikipedia_slug":null,"has_3d_model":false,"image_url":null,"decayed_at":null,"tle_current":{"epoch":"2026-05-25T04:00:03.998880Z","epoch_age_seconds":60340,"freshness":"FRESH","line1":"1 64243U 25119L   26145.16671295 -.00051495  00000+0 -41613-3 0  9995","line2":"2 64243  42.9990 108.5939 0001374 248.8369 247.1791 15.69916761  5977","mean_motion":15.69916761,"eccentricity":0.0001374,"inclination_deg":42.999,"raan_deg":108.5939,"arg_perigee_deg":248.8369,"mean_anomaly_deg":247.1791,"bstar":-0.00041613,"rev_number":597,"period_min":91.724608321447,"perigee_km":358.20944332678,"apogee_km":360.0608457121,"semimajor_km":6737.2721445194,"source":"CELESTRAK","updated_at":"2026-05-25T13:38:20.353065Z"}}}